Wind_Speed
44 39 42 36 33 28 31 30 25 23 21 11 12 11 15 16 15 21 26 28 28 31 39 38 41 31 24 18 12 7 5 5 6 8 9 5 1 1 1 1 3 3 4 5 4 2 1 2 2
45 41 44 39 39 32 31 32 31 25 24 17 13 14 12 11 13 20 22 29 25 31 36 36 41 39 27 22 14 6 3 5 2 1 2 6 6 7 8 6 5 4 5 7 9 8 8 7 6
46 47 43 44 38 35 35 36 34 25 26 19 13 16 14 13 17 22 22 27 26 30 34 36 39 39 27 24 20 8 4 4 7 7 8 8 8 8 9 10 11 13 14 14 14 12 8 7 9
49 47 51 51 41 41 39 38 39 30 31 32 20 14 15 14 17 19 18 27 26 25 29 30 35 34 37 26 22 18 12 12 11 11 11 12 15 16 19 19 19 19 17 15 11 11 10 9 11
56 49 46 43 38 48 41 41 35 30 30 29 22 16 14 17 15 15 18 24 22 21 26 27 31 32 33 33 28 23 20 19 21 23 21 22 23 23 23 21 18 16 14 14 13 11 12 11 12
60 57 53 44 41 37 36 41 36 32 31 31 22 12 13 13 14 18 20 20 13 19 22 22 26 29 29 32 37 31 24 25 25 22 21 21 23 23 22 19 19 18 17 16 14 15 19 20 17
56 58 57 50 45 42 37 35 32 28 31 32 19 19 18 17 18 15 14 14 15 11 18 18 20 24 25 25 31 34 35 29 24 22 22 21 22 23 23 19 16 17 19 17 18 19 21 20 18
57 58 53 49 51 42 40 39 35 30 32 29 24 24 21 25 17 10 15 17 14 7 15 18 15 19 21 19 25 28 35 31 25 24 24 24 24 22 22 20 18 16 14 15 17 17 18 19 20
63 56 51 51 49 40 43 44 39 33 31 28 30 31 25 22 16 24 16 14 11 11 14 14 13 13 15 17 14 17 20 27 23 19 17 17 16 13 15 15 13 13 13 15 15 17 19 20 22
68 66 61 56 49 45 40 42 42 42 39 38 35 35 28 25 14 21 16 17 13 13 20 16 9 12 12 15 11 8 9 15 16 18 16 14 12 12 13 11 12 14 15 17 18 21 22 23 25
70 68 65 56 56 51 42 38 43 41 42 45 36 37 36 33 25 21 22 21 18 18 21 11 10 10 13 18 13 8 6 9 9 5 7 8 13 11 14 14 14 14 16 18 18 21 23 25 28
59 64 64 64 58 53 52 49 44 41 40 44 39 38 34 34 32 27 25 26 25 23 17 15 14 13 16 17 17 15 13 10 11 11 9 8 8 10 11 12 15 17 16 18 21 23 26 28 33
59 61 63 66 63 56 53 53 51 45 42 41 41 40 31 35 36 31 31 27 25 22 17 18 18 15 19 21 19 18 20 14 16 16 15 16 16 16 19 18 17 18 18 19 22 26 32 33 34
65 58 65 68 69 69 63 58 56 51 46 46 37 38 36 37 32 30 29 31 28 22 23 20 22 19 17 24 23 19 21 21 19 20 23 25 22 21 20 26 23 29 26 24 24 31 36 37 40
60 65 54 55 71 74 69 65 62 52 46 46 46 49 43 38 34 36 30 32 26 20 22 25 22 18 21 21 21 22 23 23 23 24 24 26 30 27 26 28 28 31 34 34 35 38 37 42 46
64 56 58 48 57 65 69 67 60 56 55 54 48 45 42 42 42 41 35 28 29 29 30 29 24 20 24 26 25 25 24 27 26 29 27 27 31 31 32 34 38 39 38 39 39 40 43 45 51
67 59 53 53 49 57 69 65 64 65 58 54 54 51 49 49 42 41 36 33 34 36 37 33 28 28 29 31 29 30 27 27 28 34 35 32 35 38 38 40 38 43 44 47 47 49 50 47 52
70 67 60 57 56 53 57 66 67 65 59 58 58 54 52 52 47 44 42 45 47 44 43 37 34 33 28 27 34 34 32 32 32 31 36 39 41 38 39 43 46 46 47 49 52 56 56 55 58
77 72 65 65 60 53 53 49 64 68 65 62 60 57 57 56 51 53 52 51 48 49 47 44 42 39 39 36 31 35 38 37 35 36 36 38 42 48 48 49 50 53 52 54 58 63 60 56 61
82 75 73 71 61 58 57 53 56 55 58 63 63 63 62 61 55 56 55 52 52 50 51 47 44 44 43 43 39 38 40 40 43 46 44 45 44 47 51 54 57 60 58 58 61 61 61 66 65
84 81 78 75 66 65 63 56 51 51 52 57 60 62 64 65 65 64 61 55 56 56 53 53 53 50 49 44 49 45 41 46 52 54 49 51 54 54 55 55 56 62 63 65 65 65 67 69 71
88 86 82 79 73 71 64 57 59 55 55 53 53 55 60 65 68 67 67 63 61 59 56 53 55 54 50 52 53 53 45 47 48 51 59 60 61 62 65 66 61 62 65 67 71 72 71 73 75
92 88 87 82 78 74 68 62 62 59 54 55 55 53 52 50 54 65 63 68 63 62 61 57 59 58 55 54 57 58 63 56 56 57 53 51 58 67 68 67 70 68 72 71 72 77 75 75 79
96 92 92 89 85 80 74 67 61 63 62 65 61 61 61 58 56 51 51 58 61 63 62 63 63 60 60 60 58 61 65 66 63 63 67 68 66 68 68 64 67 70 74 77 76 78 82 82 82
101 96 97 96 88 81 78 72 61 66 69 71 70 70 64 65 61 58 57 56 56 58 65 62 65 64 63 63 63 66 69 71 73 75 68 76 78 76 75 76 72 73 79 81 82 82 83 88 89
100 98 96 94 90 83 83 78 68 69 73 78 77 75 72 71 70 70 67 66 63 61 60 58 60 63 67 65 69 70 71 76 76 78 77 81 84 86 86 83 86 88 89 92 92 89 88 88 89
101 102 98 97 94 90 85 80 79 76 77 77 81 82 80 78 78 77 76 74 72 71 70 68 67 66 66 67 69 72 75 78 81 85 85 87 91 88 90 91 91 91 96 99 102 102 100 98 97
102 103 101 99 97 94 90 89 86 85 83 84 83 83 85 86 84 83 81 79 77 76 76 74 75 75 75 75 74 73 73 75 75 77 82 81 87 93 90 89 95 98 96 100 102 105 105 105 106
105 104 102 101 100 96 92 91 88 86 87 87 87 88 88 88 87 89 89 87 85 84 84 84 83 84 84 83 84 85 83 83 83 84 83 84 83 88 91 92 94 96 97 101 102 104 107 112 112
111 109 108 107 103 101 99 95 93 91 92 90 91 95 95 96 94 95 94 93 93 92 91 90 90 91 93 94 93 93 91 91 93 94 94 94 93 94 95 95 96 97 99 101 110 112 111 113 111
Wind_Direction
225 234 224 228 226 228 235 241 244 265 259 253 273 277 313 329 328 342 2 0 10 1 4 12 13 8 9 3 0 349 313 286 273 271 255 252 136 200 234 229 244 239 245 254 259 269 126 106 76
231 228 228 228 239 237 235 251 246 250 260 255 253 290 309 323 307 339 357 353 4 358 1 12 17 14 15 15 8 357 329 262 278 205 86 101 98 87 92 98 91 91 97 100 100 103 99 90 76
229 234 232 223 234 231 238 249 244 249 256 263 252 267 302 288 312 321 346 343 357 353 0 10 16 19 24 29 27 13 22 85 92 98 90 100 100 93 90 91 94 95 100 99 97 90 82 74 47
230 232 236 234 232 234 236 240 248 252 249 254 248 276 277 302 302 323 333 340 345 347 356 9 12 20 29 32 43 47 51 69 84 88 88 91 91 94 96 95 95 94 94 90 91 86 69 60 51
226 230 229 233 236 225 230 234 242 244 249 255 258 278 275 283 305 324 320 327 338 344 350 2 5 19 20 29 36 48 56 70 77 82 87 94 96 94 92 90 94 93 93 84 72 58 50 47 44
233 231 232 228 226 232 238 235 234 238 242 252 260 264 274 276 285 301 305 316 341 337 351 356 1 18 24 21 40 50 59 58 71 82 91 88 87 88 89 91 90 80 79 74 65 60 61 61 60
233 232 235 233 238 236 231 240 237 242 244 248 253 264 281 257 276 294 305 325 337 334 358 356 355 17 25 26 26 38 43 53 60 78 86 82 80 81 82 82 81 83 81 77 71 55 48 46 39
233 233 233 239 241 243 232 232 242 251 247 246 246 256 265 273 277 298 280 313 336 324 350 351 353 18 14 23 23 30 34 43 63 74 72 74 81 82 75 76 80 84 66 53 35 31 25 23 16
234 232 232 242 240 240 237 236 234 243 249 243 250 254 261 269 279 270 285 299 335 311 335 335 344 359 2 16 24 27 30 35 44 49 54 58 54 62 56 56 53 49 34 25 18 12 4 359 355
231 235 240 240 234 237 235 232 239 244 243 247 256 251 263 252 249 268 282 285 309 291 307 315 336 338 354 349 357 14 26 25 27 30 35 38 35 31 30 25 28 25 16 6 1 358 353 346 340
228 230 237 239 233 235 231 235 238 245 246 250 258 267 265 259 267 281 285 283 296 294 309 289 314 328 332 339 327 330 342 0 359 21 24 20 14 6 8 8 358 347 348 348 346 341 334 331 326
223 228 231 237 237 241 244 241 242 249 251 251 252 262 258 264 272 268 285 278 282 289 292 278 276 316 309 321 330 299 300 325 308 306 323 321 325 332 323 330 336 332 323 331 333 332 331 325 322
227 228 230 230 236 240 243 247 248 244 252 251 251 248 257 266 267 269 277 277 275 275 277 274 282 287 289 301 305 310 301 296 310 308 302 295 298 303 311 310 298 306 305 311 322 324 326 321 322
231 226 226 232 238 243 243 244 242 244 251 246 239 238 252 255 254 261 270 271 267 264 272 287 274 274 283 293 290 293 305 296 299 303 307 305 314 316 300 321 301 303 297 300 312 322 319 316 312
232 229 225 235 240 243 243 240 241 245 243 242 243 247 254 257 263 263 264 262 251 253 277 291 267 272 268 273 280 290 298 306 288 306 306 309 307 303 312 309 304 308 305 303 297 307 309 313 311
232 229 224 230 237 241 237 235 238 244 247 244 243 243 254 246 258 257 261 249 250 260 268 276 265 262 267 268 275 283 291 296 295 290 295 300 298 306 307 303 305 305 303 301 298 301 304 304 306
232 228 229 230 229 234 236 238 237 237 246 238 237 243 248 247 253 257 252 246 251 261 266 266 266 267 283 265 271 274 277 280 289 293 287 286 296 299 297 299 298 301 307 306 299 302 303 300 306
234 233 230 232 230 229 231 235 236 236 244 239 238 242 242 243 249 255 246 248 254 264 261 260 261 265 270 267 271 272 273 276 283 282 284 286 292 293 296 298 300 301 303 302 303 303 303 301 305
233 231 231 236 229 232 234 231 236 239 243 240 243 237 239 241 247 246 249 248 254 259 259 259 266 256 267 262 269 270 267 274 275 277 279 285 291 293 292 295 296 295 298 304 303 304 299 299 304
229 230 235 238 230 235 232 231 230 234 237 241 242 244 239 241 245 248 248 249 252 255 256 262 266 261 260 253 266 271 265 270 283 285 286 286 283 287 289 293 297 298 294 298 299 302 297 301 301
230 230 234 236 232 236 234 233 232 233 236 240 241 244 244 244 247 251 249 249 253 250 254 258 260 252 257 260 258 267 266 281 275 281 284 287 286 290 287 292 293 295 292 295 298 300 298 301 302
229 231 235 236 233 235 237 236 239 239 234 238 238 241 245 247 247 247 251 253 251 251 252 256 258 254 257 259 262 260 263 270 282 289 281 284 289 293 289 290 289 292 295 293 297 297 298 297 296
230 232 237 237 235 235 235 233 245 243 241 246 246 248 246 247 249 245 252 251 252 253 254 257 254 255 256 259 261 266 270 261 270 265 268 274 278 276 284 289 289 286 286 288 290 292 293 295 296
230 233 235 237 236 235 237 234 243 246 248 250 251 253 251 249 252 252 252 253 251 253 258 262 262 257 256 261 263 265 270 268 271 271 267 271 272 275 279 283 283 283 284 284 288 292 293 292 292
230 231 235 237 237 236 238 234 232 252 250 253 254 253 254 255 255 255 254 258 255 257 256 260 261 262 260 262 264 265 266 270 269 271 275 268 271 275 275 278 278 280 283 283 285 286 288 293 293
233 235 237 239 238 239 238 237 238 246 255 254 254 255 257 258 259 261 260 261 261 261 261 262 263 265 261 262 262 264 266 265 267 271 274 277 275 275 278 275 281 279 282 284 284 285 287 287 290
235 236 238 238 239 240 241 241 240 241 253 257 258 256 256 259 261 261 263 264 265 268 272 272 271 270 269 268 268 267 269 269 269 269 274 275 275 274 277 278 277 282 280 282 284 286 287 286 288
231 233 236 238 239 240 240 240 241 242 246 255 258 260 261 259 260 262 264 264 266 268 271 273 273 273 274 275 276 276 275 276 276 277 273 278 277 273 277 280 278 280 282 281 283 285 285 287 287
233 235 237 240 241 241 241 242 244 245 248 250 257 259 261 263 265 265 265 265 265 267 269 271 272 274 276 276 277 278 278 279 280 280 281 281 280 278 280 282 282 282 283 280 283 284 284 284 286
233 235 237 239 240 242 240 241 244 247 248 251 254 259 261 261 261 264 266 267 268 268 269 271 273 274 275 277 278 278 278 279 280 281 282 283 282 282 284 283 284 284 284 282 278 281 283 284 283
Height
10884 10888 10891 10894 10898 10901 10905 10907 10910 10911 10913 10914 10915 10915 10914 10914 10914 10913 10911 10908 10904 10901 10897 10891 10882 10874 10870 10865 10861 10859 10859 10858 10858 10859 10860 10861 10860 10861 10862 10863 10864 10866 10868 10869 10870 10871 10872 10872 10873
10879 10884 10887 10890 10894 10899 10903 10905 10908 10909 10912 10913 10913 10913 10913 10913 10913 10913 10912 10909 10906 10903 10899 10893 10886 10879 10872 10867 10863 10862 10860 10859 10860 10860 10860 10860 10861 10861 10861 10862 10864 10866 10867 10868 10869 10871 10872 10873 10873
10873 10877 10883 10886 10890 10896 10898 10902 10905 10907 10910 10911 10912 10913 10912 10912 10912 10913 10912 10910 10907 10903 10900 10896 10890 10885 10877 10872 10867 10865 10864 10862 10861 10861 10860 10861 10861 10861 10862 10863 10865 10866 10868 10870 10871 10873 10874 10875 10875
10867 10871 10875 10882 10887 10891 10893 10898 10900 10905 10907 10910 10911 10910 10911 10912 10912 10911 10911 10910 10908 10904 10901 10899 10895 10890 10884 10878 10873 10870 10867 10864 10862 10862 10862 10862 10862 10863 10864 10866 10868 10870 10872 10873 10874 10875 10875 10875 10874
10861 10866 10870 10875 10881 10885 10889 10893 10897 10900 10904 10907 10908 10908 10909 10911 10911 10911 10910 10909 10908 10905 10902 10901 10896 10892 10888 10883 10877 10875 10871 10868 10866 10864 10866 10867 10867 10868 10868 10870 10871 10872 10874 10875 10876 10876 10876 10874 10873
10854 10859 10863 10869 10876 10880 10884 10890 10892 10896 10900 10903 10905 10906 10908 10910 10909 10909 10908 10908 10907 10905 10903 10901 10898 10895 10891 10887 10885 10881 10877 10874 10871 10871 10871 10872 10871 10872 10872 10873 10875 10876 10876 10877 10877 10877 10876 10874 10873
10845 10852 10857 10864 10870 10874 10880 10885 10888 10892 10895 10899 10901 10903 10905 10907 10907 10908 10907 10907 10906 10905 10903 10901 10900 10897 10894 10893 10889 10887 10883 10879 10877 10877 10876 10876 10875 10876 10876 10877 10878 10878 10878 10878 10877 10877 10875 10874 10872
10838 10845 10851 10857 10863 10870 10874 10878 10883 10886 10891 10895 10897 10899 10902 10904 10905 10906 10906 10904 10905 10904 10904 10902 10901 10899 10897 10894 10891 10889 10887 10885 10883 10882 10881 10880 10880 10880 10880 10881 10881 10880 10879 10878 10876 10876 10874 10872 10871
10831 10837 10843 10850 10858 10864 10868 10872 10877 10881 10886 10891 10893 10894 10899 10901 10903 10904 10905 10904 10903 10903 10903 10901 10900 10899 10898 10896 10894 10893 10892 10890 10889 10886 10886 10885 10885 10884 10882 10882 10882 10881 10879 10878 10876 10875 10872 10870 10868
10821 10829 10834 10846 10852 10853 10861 10866 10870 10875 10881 10885 10888 10891 10895 10896 10898 10899 10901 10901 10902 10902 10902 10901 10900 10898 10896 10897 10896 10895 10894 10893 10891 10889 10888 10887 10886 10885 10884 10883 10882 10880 10879 10878 10875 10873 10871 10869 10866
10812 10817 10829 10838 10842 10848 10856 10860 10865 10870 10875 10877 10882 10885 10889 10891 10893 10895 10897 10899 10899 10899 10900 10900 10899 10898 10896 10895 10895 10895 10894 10893 10892 10891 10889 10887 10886 10885 10884 10883 10881 10879 10877 10875 10873 10871 10869 10866 10864
10803 10810 10820 10828 10836 10841 10848 10854 10860 10864 10868 10872 10876 10880 10882 10886 10888 10891 10892 10894 10896 10896 10896 10896 10896 10895 10895 10893 10893 10892 10892 10891 10891 10889 10887 10886 10885 10884 10882 10880 10878 10876 10874 10872 10870 10869 10866 10863 10860
10795 10803 10812 10817 10828 10834 10841 10846 10851 10858 10860 10865 10869 10874 10877 10880 10883 10885 10887 10888 10891 10892 10893 10893 10893 10892 10892 10891 10890 10890 10889 10889 10888 10887 10886 10884 10882 10881 10880 10877 10875 10873 10872 10870 10867 10865 10862 10859 10855
10785 10797 10803 10810 10818 10824 10833 10838 10842 10850 10852 10857 10862 10867 10869 10873 10877 10880 10881 10882 10884 10886 10887 10889 10889 10888 10888 10887 10887 10886 10885 10885 10884 10883 10882 10881 10879 10877 10876 10874 10871 10870 10868 10865 10863 10861 10858 10855 10850
10776 10788 10796 10802 10806 10814 10823 10827 10830 10843 10845 10851 10856 10860 10863 10867 10872 10872 10873 10875 10878 10879 10882 10883 10883 10883 10883 10883 10883 10881 10881 10880 10880 10878 10878 10876 10875 10873 10870 10869 10867 10864 10863 10860 10857 10855 10852 10849 10843
10769 10780 10792 10793 10797 10804 10811 10814 10825 10833 10836 10843 10849 10853 10856 10859 10862 10863 10867 10869 10871 10873 10874 10876 10877 10877 10878 10878 10878 10877 10876 10875 10874 10873 10872 10871 10869 10868 10866 10864 10862 10859 10856 10853 10850 10848 10844 10840 10835
10763 10775 10783 10784 10790 10796 10799 10808 10814 10821 10827 10833 10838 10843 10847 10850 10853 10856 10860 10862 10863 10865 10866 10869 10870 10872 10872 10872 10873 10872 10870 10869 10868 10867 10866 10865 10864 10862 10860 10858 10855 10852 10848 10845 10843 10840 10837 10833 10827
10756 10762 10771 10773 10779 10788 10790 10796 10804 10812 10817 10822 10828 10831 10835 10839 10843 10848 10849 10851 10854 10856 10859 10861 10863 10864 10864 10865 10865 10865 10864 10862 10860 10859 10859 10858 10857 10855 10853 10851 10849 10846 10842 10837 10834 10831 10829 10824 10819
10738 10750 10758 10758 10772 10780 10781 10790 10797 10803 10807 10812 10817 10821 10824 10827 10832 10837 10839 10841 10845 10848 10850 10853 10854 10855 10856 10857 10856 10856 10856 10854 10853 10852 10850 10849 10849 10847 10845 10842 10839 10835 10833 10828 10825 10821 10817 10813 10808
10726 10738 10743 10745 10766 10768 10772 10781 10789 10794 10795 10801 10805 10807 10812 10817 10820 10826 10830 10833 10835 10839 10841 10843 10845 10847 10848 10847 10848 10847 10847 10846 10846 10845 10843 10842 10840 10837 10835 10833 10829 10826 10822 10818 10815 10811 10807 10802 10797
10718 10727 10730 10736 10754 10757 10763 10775 10781 10784 10789 10793 10794 10797 10801 10807 10811 10817 10821 10823 10825 10827 10831 10834 10836 10836 10837 10837 10838 10837 10836 10836 10837 10836 10834 10833 10829 10827 10824 10822 10820 10817 10812 10808 10802 10799 10795 10789 10784
10700 10709 10715 10724 10739 10744 10756 10769 10770 10775 10780 10780 10784 10788 10792 10797 10801 10806 10807 10811 10813 10817 10821 10824 10826 10827 10827 10828 10828 10827 10826 10826 10827 10827 10824 10822 10818 10816 10813 10810 10808 10805 10802 10798 10792 10787 10782 10776 10770
10685 10697 10702 10714 10728 10734 10747 10758 10759 10766 10773 10768 10773 10779 10784 10787 10790 10794 10795 10799 10803 10806 10809 10812 10815 10817 10817 10818 10817 10816 10815 10814 10814 10813 10807 10806 10806 10801 10799 10798 10796 10793 10789 10784 10779 10773 10767 10762 10755
10674 10683 10688 10697 10709 10723 10737 10748 10756 10758 10761 10758 10765 10767 10769 10776 10780 10783 10785 10789 10791 10795 10797 10800 10803 10802 10804 10806 10806 10805 10802 10803 10803 10801 10798 10792 10792 10788 10784 10784 10780 10776 10772 10768 10764 10759 10753 10747 10741
10661 10673 10674 10682 10700 10729 10727 10738 10758 10741 10745 10744 10747 10751 10758 10763 10769 10773 10777 10778 10780 10784 10786 10787 10789 10789 10792 10793 10792 10792 10792 10788 10787 10786 10783 10781 10777 10774 10771 10769 10765 10761 10756 10752 10749 10743 10737 10732 10725
10653 10660 10667 10674 10692 10708 10712 10730 10744 10735 10727 10726 10733 10739 10745 10749 10753 10756 10762 10765 10768 10771 10773 10774 10775 10775 10778 10779 10777 10778 10776 10776 10773 10772 10772 10767 10763 10759 10755 10754 10752 10746 10741 10736 10732 10728 10722 10715 10709
10642 10650 10656 10665 10678 10690 10702 10714 10720 10725 10715 10716 10717 10725 10729 10733 10736 10742 10748 10752 10755 10756 10758 10762 10763 10762 10763 10763 10763 10763 10762 10761 10760 10757 10757 10753 10745 10741 10739 10737 10733 10728 10723 10719 10712 10710 10705 10698 10691
10619 10629 10633 10645 10659 10674 10689 10698 10705 10711 10710 10701 10704 10704 10708 10715 10722 10728 10732 10737 10742 10743 10745 10747 10745 10745 10744 10746 10746 10746 10745 10742 10740 10740 10738 10735 10731 10720 10722 10720 10715 10710 10704 10698 10693 10688 10684 10679 10672
10605 10618 10627 10634 10641 10658 10673 10683 10687 10692 10691 10691 10687 10690 10694 10699 10705 10711 10716 10720 10726 10728 10729 10730 10730 10729 10727 10727 10728 10728 10727 10726 10722 10718 10717 10715 10714 10706 10702 10700 10696 10690 10684 10677 10673 10667 10663 10657 10650
10585 10596 10603 10608 10622 10632 10646 10659 10667 10673 10677 10681 10682 10676 10679 10684 10692 10693 10696 10700 10705 10707 10709 10712 10712 10712 10711 10710 10709 10709 10709 10707 10702 10698 10698 10695 10693 10687 10681 10677 10674 10669 10664 10657 10652 10645 10639 10632 10628